User: anonymous   Login
Location: Scultetus-Sternwarte G�rlitz
(51.1356°N, 14.9514°E)
Time: 16:53:29
(UTC+01:00)
Language:

Iridium 3 - Orbit

View from above orbital plane
View from above orbital plane
View from above satellite
View from above satellite

Ground track
Ground track

The orbit data is extracted from the following two-line orbital elements,

1 25431U 98048A   16039.61905331  .00000110  00000-0  32090-4 0  9991
2 25431  86.3960 102.4833 0002230 100.9695  16.2967 14.34214559914729
Epoch (UTC): 08 February 2016 14:51:26
Eccentricity: 0.0002230
inclination: 86.3960°
perigee height: 776 km
apogee height: 779 km
right ascension of ascending node: 102.4833°
argument of perigee: 100.9695°
revolutions per day: 14.34214559
mean anomaly at epoch: 16.2967°
orbit number at epoch: 91472

The dashed part of the orbit path shows where the satellite is in the earth's shadow,  

DLR